星链-35481(STARLINK-35481)

导读 | 豆包AI

STARLINK-35481是美国太空探索技术公司(SpaceX)星链(Starlink)互联网卫星星座的组成部分,于2025年10月29日发射升空,归属美国。星链项目旨在构建全球卫星互联网覆盖网络,该卫星入轨后,将和星座中其他卫星协同工作,为全球不同地区用户提供高速低延迟的宽带互联网接入服务。

基本信息
目录编号:
66247
目录名称:
STARLINK-35481
国际标识:
2025-245P
轨道中心:
EARTH
卫星名称:
星链-35481
卫星全名:
星链-35481(STARLINK-35481)
卫星状态:
在轨 (已飞行157 天)
发射日期:
2025-10-29 UTC
国别 :
美国 (US)
星等 :
--
轨道信息
数据来源 国际轨道数据
星历时间: 2026-04-03T19:50:48+0800
20小时前
查看轨道信息
半长轴: 6853.527km
偏心率: 0.0001492
轨道倾角: 53.157°
近地点辐角 37.036°
升交点赤经 168.718°
平近点角 323.075°
近地点: 474.367km
远地点: 476.413km
周期: 94.109分钟
每日圈数: 15.301417
详细信息
固有亮度:
5
最大亮度:
2.5
卫星平台:
Starlink V1.0
覆盖范围:
全球
运营商:
太空探索技术公司
运营商所在国:
美国
制造商(研发单位):
太空探索技术公司
制造商所在国:
美国
使用方式:
暂无
卫星简介
Starlink 计划是 SpaceX 推出的全球卫星互联网项目,通过发射低轨道卫星,为全球尤其是偏远地区提供高速、低延迟的互联网服务。自 2019 年起,Starlink 已部署数千颗卫星,旨在缩小全球数字鸿沟,推动互联网普及。该项目还为军事、航空等行业提供通信支持,带来广泛经济效益。
2D轨道图
3D轨道图
轨道高度分析图
轨道倾角分析图
轨道综合分析图
查看轨道综合分析图